User: anonymous   Login
Location: Azul
(36.7830°S, 59.8500°W)
Time: 01:45:58
(UTC-03:00)
Language:

PicSat - Orbit

View from above orbital plane
View from above orbital plane
View from above satellite
View from above satellite

Ground track
Ground track

The orbit data is extracted from the following two-line orbital elements,

1 43131U 18004W   21295.43934906  .00005203  00000-0  19001-3 0  9996
2 43131  97.4019  10.5722 0009640 111.2733 248.9537 15.28512722210150
Epoch (UTC): 22 October 2021 10:32:39
Eccentricity: 0.0009640
inclination: 97.4019°
perigee height: 473 km
apogee height: 487 km
right ascension of ascending node: 10.5722°
argument of perigee: 111.2733°
revolutions per day: 15.28512722
mean anomaly at epoch: 248.9537°
orbit number at epoch: 21015

The dashed part of the orbit path shows where the satellite is in the earth's shadow,  

DLR